Location: Bonny Doon Airfield
(37.0704°N, 122.1252°W)
Time: 14:54:12
(UTC-08:00)

Vanguard 1 Rocket - Pass Details

Date: 24 October 2017
Orbit: 655 x 4222 km, 34.3° (Epoch: 18 November)

Event Time Altitude Azimuth Distance (km) Brightness Sun altitude
Rises 11:05:54 0° 275° (W) 3,581 10.2 34.9°
Reaches altitude 10° 11:08:53 10° 269° (W) 2,358 9.4 35.2°
Maximum altitude 11:13:37 41° 198° (SSW) 959 8.5 35.7°
Drops below altitude 10° 11:17:46 10° 127° (SE) 2,071 10.3 36.1°
Sets 11:20:14 0° 120° (ESE) 3,083 10.9 36.3°
